Time,TemperatureF,DewpointF,PressureIn,WindDirection,WindDirectionDegrees,WindSpeedMPH,WindSpeedGustMPH,Humidity,HourlyPrecipIn,Conditions,Clouds,dailyrainin,SoftwareType,DateUTC
2013-01-10 00:04:00,55.2,50.8,30.15,ESE,112,1.7,-999.0,85,-99.99,,,0.00,Acu-Link.com,2013-01-10 05:04:00,
2013-01-10 00:19:00,55.0,50.9,30.15,NE,45,0.0,-999.0,86,-99.99,,,0.00,Acu-Link.com,2013-01-10 05:19:00,
2013-01-10 00:34:00,54.3,50.5,30.15,ENE,67,0.0,-999.0,87,-99.99,,,0.00,Acu-Link.com,2013-01-10 05:34:00,
2013-01-10 00:50:00,54.0,50.8,30.16,South,180,1.7,-999.0,89,-99.99,,,0.00,Acu-Link.com,2013-01-10 05:50:00,
2013-01-10 01:05:00,54.1,50.9,30.15,NE,45,2.2,-999.0,89,-99.99,,,0.00,Acu-Link.com,2013-01-10 06:05:00,
2013-01-10 01:20:00,54.7,50.9,30.15,NE,45,1.7,-999.0,87,-99.99,,,0.00,Acu-Link.com,2013-01-10 06:20:00,
2013-01-10 01:36:00,54.0,50.5,30.15,NE,45,0.0,-999.0,88,-99.99,,,0.00,Acu-Link.com,2013-01-10 06:36:00,
2013-01-10 01:51:00,53.2,50.0,30.15,East,90,0.0,-999.0,89,-99.99,,,0.00,Acu-Link.com,2013-01-10 06:51:00,
2013-01-10 02:06:00,52.7,50.4,30.15,East,90,0.0,-999.0,92,-99.99,,,0.00,Acu-Link.com,2013-01-10 07:06:00,
2013-01-10 02:22:00,52.5,49.9,30.14,ENE,67,1.1,-999.0,91,-99.99,,,0.00,Acu-Link.com,2013-01-10 07:22:00,
2013-01-10 02:38:00,52.2,49.9,30.15,ENE,67,0.0,-999.0,92,-99.99,,,0.00,Acu-Link.com,2013-01-10 07:38:00,
2013-01-10 02:53:00,51.8,49.8,30.15,NE,45,0.0,-999.0,93,-99.99,,,0.00,Acu-Link.com,2013-01-10 07:53:00,
2013-01-10 03:08:00,51.6,50.2,30.14,East,90,0.0,-999.0,95,-99.99,,,0.00,Acu-Link.com,2013-01-10 08:08:00,
2013-01-10 03:24:00,51.4,50.0,30.14,ENE,67,0.0,-999.0,95,-99.99,,,0.00,Acu-Link.com,2013-01-10 08:24:00,
2013-01-10 03:39:00,51.3,50.2,30.14,NE,45,0.0,-999.0,96,-99.99,,,0.00,Acu-Link.com,2013-01-10 08:39:00,
2013-01-10 03:54:00,50.5,49.4,30.14,NNW,337,0.0,-999.0,96,-99.99,,,0.00,Acu-Link.com,2013-01-10 08:54:00,
2013-01-10 04:09:00,50.2,49.4,30.14,NE,45,0.0,-999.0,97,-99.99,,,0.00,Acu-Link.com,2013-01-10 09:09:00,
2013-01-10 04:24:00,50.2,49.7,30.14,ESE,112,0.0,-999.0,98,-99.99,,,0.00,Acu-Link.com,2013-01-10 09:24:00,
2013-01-10 04:40:00,50.2,49.9,30.13,East,90,0.0,-999.0,99,-99.99,,,0.00,Acu-Link.com,2013-01-10 09:40:00,
2013-01-10 04:56:00,50.4,50.1,30.14,East,90,0.0,-999.0,99,-99.99,,,0.00,Acu-Link.com,2013-01-10 09:56:00,
2013-01-10 05:11:00,50.0,49.7,30.13,NNE,22,0.0,-999.0,99,-99.99,,,0.00,Acu-Link.com,2013-01-10 10:11:00,
2013-01-10 05:26:00,50.2,49.9,30.12,WNW,292,0.0,-999.0,99,-99.99,,,0.00,Acu-Link.com,2013-01-10 10:26:00,
2013-01-10 05:42:00,50.0,49.7,30.13,NNE,22,0.0,-999.0,99,-99.99,,,0.00,Acu-Link.com,2013-01-10 10:42:00,
2013-01-10 05:57:00,49.8,49.5,30.13,SSW,202,0.0,-999.0,99,-99.99,,,0.00,Acu-Link.com,2013-01-10 10:57:00,
2013-01-10 06:12:00,49.5,49.2,30.14,SSE,157,0.0,-999.0,99,-99.99,,,0.00,Acu-Link.com,2013-01-10 11:12:00,
2013-01-10 06:28:00,49.5,49.2,30.15,SSE,157,0.0,-999.0,99,-99.99,,,0.00,Acu-Link.com,2013-01-10 11:28:00,
2013-01-10 06:44:00,49.5,49.2,30.14,SSE,157,0.0,-999.0,99,-99.99,,,0.00,Acu-Link.com,2013-01-10 11:44:00,
2013-01-10 06:59:00,49.5,49.2,30.15,SSE,157,0.0,-999.0,99,-99.99,,,0.00,Acu-Link.com,2013-01-10 11:59:00,
2013-01-10 07:14:00,48.9,48.6,30.15,ENE,67,0.0,-999.0,99,-99.99,,,0.00,Acu-Link.com,2013-01-10 12:14:00,
2013-01-10 07:29:00,48.6,48.3,30.15,ENE,67,0.0,-999.0,99,-99.99,,,0.00,Acu-Link.com,2013-01-10 12:29:00,
2013-01-10 07:44:00,48.0,47.7,30.16,SE,135,0.0,-999.0,99,-99.99,,,0.00,Acu-Link.com,2013-01-10 12:44:00,
2013-01-10 07:59:00,47.7,47.4,30.16,East,90,0.0,-999.0,99,-99.99,,,0.00,Acu-Link.com,2013-01-10 12:59:00,
2013-01-10 08:15:00,47.5,47.2,30.16,ENE,67,0.0,-999.0,99,-99.99,,,0.00,Acu-Link.com,2013-01-10 13:15:00,
2013-01-10 08:30:00,48.0,47.7,30.17,ENE,67,0.0,-999.0,99,-99.99,,,0.00,Acu-Link.com,2013-01-10 13:30:00,
2013-01-10 08:45:00,48.4,48.1,30.18,ENE,67,0.0,-999.0,99,-99.99,,,0.00,Acu-Link.com,2013-01-10 13:45:00,
2013-01-10 09:01:00,49.3,49.0,30.19,ENE,67,0.0,-999.0,99,-99.99,,,0.00,Acu-Link.com,2013-01-10 14:01:00,
2013-01-10 09:16:00,50.2,49.9,30.19,ENE,67,2.2,-999.0,99,-99.99,,,0.00,Acu-Link.com,2013-01-10 14:16:00,
2013-01-10 09:31:00,51.3,51.0,30.19,East,90,2.2,-999.0,99,-99.99,,,0.00,Acu-Link.com,2013-01-10 14:31:00,
2013-01-10 09:47:00,53.1,51.4,30.19,ENE,67,3.2,-999.0,94,-99.99,,,0.00,Acu-Link.com,2013-01-10 14:47:00,
2013-01-10 10:02:00,53.2,50.9,30.19,NE,45,2.7,-999.0,92,-99.99,,,0.00,Acu-Link.com,2013-01-10 15:02:00,
2013-01-10 10:17:00,53.2,50.9,30.20,NE,45,0.0,-999.0,92,-99.99,,,0.00,Acu-Link.com,2013-01-10 15:17:00,
2013-01-10 10:33:00,54.0,51.7,30.20,ENE,67,4.2,-999.0,92,-99.99,,,0.00,Acu-Link.com,2013-01-10 15:33:00,
2013-01-10 10:48:00,54.0,51.1,30.20,East,90,2.7,-999.0,90,-99.99,,,0.00,Acu-Link.com,2013-01-10 15:48:00,
2013-01-10 11:03:00,54.1,51.2,30.19,East,90,6.8,-999.0,90,-99.99,,,0.00,Acu-Link.com,2013-01-10 16:03:00,
2013-01-10 11:19:00,54.1,51.2,30.19,East,90,4.7,-999.0,90,-99.99,,,0.00,Acu-Link.com,2013-01-10 16:19:00,
2013-01-10 11:34:00,54.5,51.0,30.18,East,90,4.7,-999.0,88,-99.99,,,0.00,Acu-Link.com,2013-01-10 16:34:00,
2013-01-10 11:49:00,54.9,51.1,30.18,East,90,4.7,-999.0,87,-99.99,,,0.00,Acu-Link.com,2013-01-10 16:49:00,
2013-01-10 12:04:00,55.4,51.3,30.17,NE,45,3.2,-999.0,86,-99.99,,,0.00,Acu-Link.com,2013-01-10 17:04:00,
2013-01-10 12:20:00,55.8,51.4,30.16,ENE,67,2.7,-999.0,85,-99.99,,,0.00,Acu-Link.com,2013-01-10 17:20:00,
2013-01-10 12:35:00,56.7,51.9,30.15,ENE,67,3.2,-999.0,84,-99.99,,,0.00,Acu-Link.com,2013-01-10 17:35:00,
2013-01-10 12:50:00,59.2,52.3,30.14,SSE,157,1.7,-999.0,78,-99.99,,,0.00,Acu-Link.com,2013-01-10 17:50:00,
2013-01-10 13:06:00,58.3,51.8,30.13,ENE,67,3.7,-999.0,79,-99.99,,,0.00,Acu-Link.com,2013-01-10 18:06:00,
2013-01-10 13:21:00,58.6,51.4,30.12,East,90,3.2,-999.0,77,-99.99,,,0.00,Acu-Link.com,2013-01-10 18:21:00,
2013-01-10 13:36:00,59.0,51.4,30.12,NE,45,2.7,-999.0,76,-99.99,,,0.00,Acu-Link.com,2013-01-10 18:36:00,
2013-01-10 13:52:00,60.1,51.8,30.11,East,90,1.1,-999.0,74,-99.99,,,0.00,Acu-Link.com,2013-01-10 18:52:00,
2013-01-10 14:07:00,60.6,51.5,30.10,NW,315,0.0,-999.0,72,-99.99,,,0.00,Acu-Link.com,2013-01-10 19:07:00,
2013-01-10 14:22:00,60.6,51.5,30.10,East,90,2.2,-999.0,72,-99.99,,,0.00,Acu-Link.com,2013-01-10 19:22:00,
2013-01-10 14:37:00,60.6,51.1,30.10,NE,45,1.1,-999.0,71,-99.99,,,0.00,Acu-Link.com,2013-01-10 19:37:00,
2013-01-10 14:52:00,61.2,51.7,30.10,ENE,67,2.2,-999.0,71,-99.99,,,0.00,Acu-Link.com,2013-01-10 19:52:00,
2013-01-10 15:08:00,61.2,51.3,30.09,East,90,4.7,-999.0,70,-99.99,,,0.00,Acu-Link.com,2013-01-10 20:08:00,
2013-01-10 15:23:00,61.3,51.4,30.10,NE,45,3.7,-999.0,70,-99.99,,,0.00,Acu-Link.com,2013-01-10 20:23:00,
2013-01-10 15:38:00,61.2,51.3,30.10,ENE,67,3.2,-999.0,70,-99.99,,,0.00,Acu-Link.com,2013-01-10 20:38:00,
2013-01-10 15:54:00,60.4,51.0,30.10,SSW,202,0.0,-999.0,71,-99.99,,,0.00,Acu-Link.com,2013-01-10 20:54:00,
2013-01-10 16:09:00,59.9,50.8,30.11,North,0,0.0,-999.0,72,-99.99,,,0.00,Acu-Link.com,2013-01-10 21:09:00,
2013-01-10 16:24:00,59.2,50.5,30.11,East,90,3.7,-999.0,73,-99.99,,,0.00,Acu-Link.com,2013-01-10 21:24:00,
2013-01-10 16:40:00,59.2,50.9,30.10,ENE,67,1.7,-999.0,74,-99.99,,,0.00,Acu-Link.com,2013-01-10 21:40:00,
2013-01-10 16:55:00,59.0,50.7,30.11,East,90,2.2,-999.0,74,-99.99,,,0.00,Acu-Link.com,2013-01-10 21:55:00,
2013-01-10 17:10:00,58.6,50.7,30.11,ENE,67,2.2,-999.0,75,-99.99,,,0.00,Acu-Link.com,2013-01-10 22:10:00,
2013-01-10 17:26:00,58.1,50.2,30.12,ESE,112,0.0,-999.0,75,-99.99,,,0.00,Acu-Link.com,2013-01-10 22:26:00,
2013-01-10 17:41:00,57.7,50.2,30.10,ENE,67,3.2,-999.0,76,-99.99,,,0.00,Acu-Link.com,2013-01-10 22:41:00,
2013-01-10 17:56:00,57.4,49.9,30.11,East,90,1.7,-999.0,76,-99.99,,,0.00,Acu-Link.com,2013-01-10 22:56:00,
2013-01-10 18:12:00,56.8,49.7,30.11,East,90,2.2,-999.0,77,-99.99,,,0.00,Acu-Link.com,2013-01-10 23:12:00,
2013-01-10 18:27:00,56.5,49.7,30.11,ENE,67,2.2,-999.0,78,-99.99,,,0.00,Acu-Link.com,2013-01-10 23:27:00,
2013-01-10 18:42:00,56.3,49.5,30.10,NE,45,1.7,-999.0,78,-99.99,,,0.00,Acu-Link.com,2013-01-10 23:42:00,
2013-01-10 18:58:00,56.1,49.7,30.10,ESE,112,1.1,-999.0,79,-99.99,,,0.00,Acu-Link.com,2013-01-10 23:58:00,
2013-01-10 19:13:00,55.9,49.5,30.09,NE,45,1.7,-999.0,79,-99.99,,,0.00,Acu-Link.com,2013-01-11 00:13:00,
2013-01-10 19:28:00,55.6,49.2,30.10,ENE,67,2.2,-999.0,79,-99.99,,,0.00,Acu-Link.com,2013-01-11 00:28:00,
2013-01-10 19:43:00,55.4,49.0,30.09,ENE,67,1.1,-999.0,79,-99.99,,,0.00,Acu-Link.com,2013-01-11 00:43:00,
2013-01-10 19:59:00,55.4,49.0,30.09,NE,45,2.2,-999.0,79,-99.99,,,0.00,Acu-Link.com,2013-01-11 00:59:00,
2013-01-10 20:14:00,55.4,48.3,30.08,SE,135,1.1,-999.0,77,-99.99,,,0.00,Acu-Link.com,2013-01-11 01:14:00,
2013-01-10 20:29:00,55.9,47.7,30.08,West,270,4.2,-999.0,74,-99.99,,,0.00,Acu-Link.com,2013-01-11 01:29:00,
2013-01-10 20:45:00,56.1,47.6,30.08,North,0,2.2,-999.0,73,-99.99,,,0.00,Acu-Link.com,2013-01-11 01:45:00,
2013-01-10 21:00:00,56.1,47.9,30.08,ENE,67,2.7,-999.0,74,-99.99,,,0.00,Acu-Link.com,2013-01-11 02:00:00,
2013-01-10 21:15:00,55.8,48.0,30.08,NE,45,4.2,-999.0,75,-99.99,,,0.00,Acu-Link.com,2013-01-11 02:15:00,
2013-01-10 21:31:00,55.6,47.8,30.08,ENE,67,3.7,-999.0,75,-99.99,,,0.00,Acu-Link.com,2013-01-11 02:31:00,
2013-01-10 21:46:00,55.0,48.6,30.08,ENE,67,2.7,-999.0,79,-99.99,,,0.00,Acu-Link.com,2013-01-11 02:46:00,
2013-01-10 22:01:00,54.1,49.1,30.07,East,90,3.2,-999.0,83,-99.99,,,0.00,Acu-Link.com,2013-01-11 03:01:00,
2013-01-10 22:17:00,52.7,49.2,30.06,NE,45,2.7,-999.0,88,-99.99,,,0.00,Acu-Link.com,2013-01-11 03:17:00,
2013-01-10 22:32:00,51.4,49.4,30.06,NE,45,2.2,-999.0,93,-99.99,,,0.00,Acu-Link.com,2013-01-11 03:32:00,
2013-01-10 22:47:00,51.3,49.1,30.05,SW,225,0.0,-999.0,92,-99.99,,,0.00,Acu-Link.com,2013-01-11 03:47:00,
2013-01-10 23:03:00,51.1,48.3,30.05,South,180,0.0,-999.0,90,-99.99,,,0.00,Acu-Link.com,2013-01-11 04:03:00,
2013-01-10 23:18:00,50.4,48.2,30.04,East,90,3.7,-999.0,92,-99.99,,,0.00,Acu-Link.com,2013-01-11 04:18:00,
2013-01-10 23:33:00,49.8,47.9,30.04,ENE,67,3.2,-999.0,93,-99.99,,,0.00,Acu-Link.com,2013-01-11 04:33:00,
2013-01-10 23:49:00,49.1,47.7,30.04,NE,45,1.7,-999.0,95,-99.99,,,0.01,Acu-Link.com,2013-01-11 04:49:00,